[[{"header":{"parameterUnit":"m.s-1","parameterCategory":1,"la1":30.2991,"la2":30.254,"lo1":-89.0895,"lo2":-89.0444,"dy":0.0017,"dx":0.0017,"nx":28,"ny":28,"refTime":"2025-12-26T03:00:00:Z","depth":0,"parameterNumber":2,"parameterNumberName":"U-component_of_WINDS"},"data":[0,0,0,0,0,0,0,0,0,0,0,0,0,0,0,0,0,0,0,0,0,0,0,0,0,0,0,0,0,0,0,0,0,0,0,0,0,0,0,0,0,0,0,0,0,0,0,0,0,0,0,0,0,0,0,0,0,0,0.6727,0.6727,0,0.6745,0.6745,0.6745,0.6747,0.6746,0.6746,0.6746,0.6765,0.6766,0.6766,0,0,0,0,0,0,0,0,0,0,0,0,0,0.6694,0.6695,0.6727,0.6727,0.6728,0.6745,0.6745,0.6745,0.6747,0.6746,0.6746,0.6746,0.6765,0.6766,0.6766,0,0,0,0,0,0,0,0,0,0,0,0,0,0.671,0.6695,0.6727,0.673,0.6731,0.6745,0.6745,0.6746,0.6747,0.6746,0.6746,0.6746,0.6764,0.6765,0.6766,0.6779,0,0,0.677,0.677,0,0,0,0,0,0,0,0,0.6709,0.6711,0.673,0.673,0.6731,0.6743,0.6741,0.6757,0.6747,0.6741,0.6746,0.6746,0.6758,0.676,0.6764,0.678,0.6781,0.677,0.677,0.6771,0.6771,0,0,0,0,0,0,0,0.6708,0.671,0.6734,0.673,0.673,0.6731,0.6733,0.6744,0.6751,0.6741,0.6741,0.6743,0.6758,0.6763,0.6764,0.6781,0.677,0.6771,0.6771,0.6772,0.6808,0.6809,0,0,0,0,0,0,0.6706,0.6709,0.6734,0.6735,0.6719,0.6732,0.6734,0.674,0.6751,0.6752,0.6744,0.6743,0.6761,0.6763,0.6765,0.678,0.6771,0.6772,0.6772,0.6808,0.6808,0.6809,0,0,0,0,0,0,0.6705,0.6708,0.6733,0.6722,0.6725,0.6733,0.6739,0.674,0.6744,0.6753,0.6754,0.6747,0.6761,0.6763,0.6775,0.6781,0.6772,0.6773,0.6808,0.6808,0.6809,0.6811,0,0,0,0,0,0,0.6704,0.6708,0.6713,0.6722,0.6726,0.6743,0.6739,0.6741,0.6746,0.6746,0.6756,0.6757,0.6761,0.6774,0.6776,0.6782,0.6774,0.6807,0.6808,0.6808,0.681,0.6811,0.6812,0,0,0,0,0,0.6703,0.6713,0.6713,0.6716,0.6732,0.6743,0.6745,0.6749,0.6747,0.6751,0.6757,0.6757,0.678,0.6775,0.6778,0.6784,0.6807,0.6808,0.6808,0.681,0.6811,0.6812,0,0,0,0,0,0,0.6704,0.6714,0.6714,0.6727,0.6734,0.6744,0.675,0.675,0.6759,0.6758,0.6763,0.6765,0.6777,0.6782,0.6776,0.6797,0.6793,0.6794,0.6793,0.6794,0.6795,0.6794,0.6775,0,0,0,0,0,0.6705,0.6714,0.6722,0.6733,0.6736,0.6742,0.6748,0.675,0.6758,0.6761,0.6767,0.6774,0.6783,0.6789,0.6798,0.6811,0.6813,0.6816,0.6817,0.6818,0.6819,0.6826,0.6828,0.6811,0.6811,0.6811,0,0,0.6709,0.6715,0.6721,0.6733,0.6739,0.6748,0.6745,0.6754,0.6761,0.6762,0.6774,0.6779,0.6787,0.68,0.6806,0.6804,0.6824,0.6819,0.682,0.682,0.6827,0.6829,0.683,0.6812,0.6812,0.6812,0,0,0.6719,0.6725,0.6735,0.674,0.6749,0.6753,0.6755,0.6765,0.6768,0.6779,0.6781,0.6789,0.6804,0.681,0.6815,0.6828,0.6828,0.6831,0.6836,0.6843,0.6844,0.6845,0.685,0.6851,0.6832,0.6832,0.6832,0,0.6722,0.6735,0.6739,0.6748,0.6754,0.6755,0.6765,0.677,0.6782,0.6785,0.6784,0.6803,0.6809,0.6823,0.6826,0.683,0.6833,0.6829,0.6843,0.6845,0.6846,0.685,0.6852,0.6832,0.6832,0.6832,0.6832,0,0.6739,0.6748,0.6754,0.6765,0.6771,0.678,0.6786,0.6791,0.6793,0.6797,0.6809,0.6817,0.6827,0.683,0.6832,0.6845,0.6843,0.6842,0.6839,0.6848,0.6852,0.6853,0.6832,0.6832,0.6832,0.6832,0,0,0.675,0.6763,0.6765,0.677,0.678,0.6787,0.6796,0.6806,0.6811,0.6818,0.6826,0.6839,0.6838,0.6844,0.6847,0.6853,0.6863,0.6851,0.6851,0.6853,0.6877,0.6877,0.6879,0.6863,0.6863,0.6864,0.6876,0,0.6761,0.6778,0.6782,0.6796,0.6804,0.6806,0.6814,0.6821,0.6825,0.6833,0.6838,0.6847,0.6845,0.6848,0.6855,0.686,0.6867,0.6859,0.6871,0.6871,0.6868,0.6881,0.6882,0.6893,0.6878,0.6878,0.6878,0,0.6777,0.6785,0.68,0.6809,0.6812,0.682,0.6829,0.6836,0.6844,0.6847,0.6853,0.6855,0.6865,0.6861,0.6875,0.687,0.6875,0.6878,0.6878,0.688,0.6875,0.6883,0.6897,0.6898,0.6881,0.688,0.688,0,0.6783,0.6798,0.6809,0.6813,0.6823,0.6828,0.6833,0.6841,0.6846,0.6854,0.6858,0.6867,0.6872,0.688,0.6884,0.6881,0.6898,0.6894,0.69,0.69,0.6904,0.6903,0.6919,0.6907,0.6907,0.6907,0.6907,0,0.6796,0.6805,0.6812,0.6818,0.6829,0.6833,0.6843,0.6848,0.6855,0.6862,0.6864,0.6872,0.6877,0.6885,0.6889,0.69,0.6902,0.6905,0.6906,0.6904,0.6904,0.6908,0.6907,0.6907,0.6907,0.6907,0.6907,0,0.6805,0.681,0.6821,0.683,0.6833,0.684,0.6848,0.6854,0.6859,0.6868,0.6871,0.6878,0.6887,0.6893,0.6905,0.6907,0.6919,0.692,0.6917,0.6917,0.6923,0.6922,0.6941,0.6943,0.693,0.693,0.693,0,0.6812,0.6819,0.6829,0.6834,0.6839,0.6847,0.6853,0.6857,0.6863,0.6873,0.6878,0.6888,0.6896,0.6911,0.6917,0.6926,0.6927,0.6933,0.6929,0.6927,0.6927,0.6927,0.6927,0.6934,0.6934,0.6934,0.6934,0,0.6824,0.6827,0.6835,0.6843,0.685,0.6857,0.6865,0.6869,0.6875,0.6881,0.6891,0.6897,0.6909,0.6919,0.6929,0.6934,0.6935,0.6935,0.6937,0.6936,0.6934,0.6935,0.6918,0.6935,0.6935,0.6935,0.6935,0.6935,0.6833,0.6839,0.6847,0.6856,0.6861,0.6868,0.6875,0.688,0.6888,0.6898,0.69,0.6911,0.6919,0.6932,0.6937,0.6945,0.6944,0.6947,0.6948,0.6948,0.6948,0.6933,0.6947,0.6947,0.6947,0.6947,0.6947,0,0.6845,0.685,0.6858,0.6868,0.6875,0.6876,0.6884,0.689,0.6898,0.6906,0.6913,0.6925,0.6934,0.6941,0.6951,0.6956,0.6957,0.6958,0.6958,0.6959,0.6949,0.6946,0.6957,0.6957,0.6957,0.6957,0.6957,0.6957,0.6852,0.6863,0.6866,0.688,0.6885,0.6894,0.6899,0.6905,0.6911,0.6923,0.6931,0.6935,0.6943,0.6953,0.6962,0.6963,0.6967,0.6968,0.697,0.6961,0.696,0.6959,0.6956,0.6969,0.6969,0.698,0.698,0.698]},{"header":{"parameterUnit":"m.s-1","parameterCategory":1,"la1":30.2991,"la2":30.254,"lo1":-89.0895,"lo2":-89.0444,"dy":0.0017,"dx":0.0017,"nx":28,"ny":28,"refTime":"2025-12-26T03:00:00:Z","depth":0,"parameterNumber":3,"parameterNumberName":"V-component_of_WINDS"},"data":[0,0,0,0,0,0,0,0,0,0,0,0,0,0,0,0,0,0,0,0,0,0,0,0,0,0,0,0,0,0,0,0,0,0,0,0,0,0,0,0,0,0,0,0,0,0,0,0,0,0,0,0,0,0,0,0,0,0,2.3627,2.3627,0,2.3591,2.3591,2.359,2.3552,2.3552,2.3551,2.3551,2.3512,2.3512,2.3511,0,0,0,0,0,0,0,0,0,0,0,0,0,2.3663,2.3662,2.3627,2.3627,2.3626,2.3591,2.3591,2.359,2.3553,2.3552,2.3551,2.3551,2.3512,2.3512,2.3511,0,0,0,0,0,0,0,0,0,0,0,0,0,2.3639,2.3662,2.3627,2.3603,2.3601,2.3591,2.359,2.359,2.3553,2.3552,2.3551,2.355,2.3513,2.3512,2.3511,2.3522,0,0,2.3509,2.3508,0,0,0,0,0,0,0,0,2.364,2.3638,2.3607,2.3605,2.3602,2.3575,2.3589,2.3567,2.3553,2.3571,2.3551,2.355,2.3534,2.3531,2.3526,2.352,2.3518,2.3509,2.3508,2.3508,2.3507,0,0,0,0,0,0,0,2.3642,2.3639,2.3613,2.3607,2.3604,2.3594,2.359,2.3585,2.3557,2.3569,2.3566,2.3563,2.3532,2.3527,2.3525,2.3518,2.3509,2.3508,2.3507,2.3507,2.352,2.3521,0,0,0,0,0,0,2.3648,2.3641,2.3614,2.3612,2.362,2.3594,2.3589,2.3585,2.3557,2.3552,2.3563,2.3561,2.3529,2.3526,2.3523,2.3536,2.3508,2.3507,2.3506,2.352,2.3521,2.3521,0,0,0,0,0,0,2.3648,2.3646,2.3615,2.3625,2.3621,2.3594,2.3589,2.3584,2.3579,2.3553,2.3547,2.3563,2.3528,2.3525,2.3523,2.3534,2.3507,2.3506,2.3519,2.352,2.3521,2.3559,0,0,0,0,0,0,2.365,2.3646,2.365,2.3626,2.362,2.3616,2.359,2.3584,2.3578,2.3575,2.3551,2.3546,2.3527,2.3524,2.3522,2.3532,2.3505,2.3517,2.3519,2.3521,2.3557,2.3561,2.3565,0,0,0,0,0,2.3651,2.3661,2.365,2.3647,2.3625,2.3616,2.3613,2.3591,2.3579,2.3583,2.3566,2.3547,2.3533,2.3525,2.3522,2.3531,2.3517,2.3519,2.352,2.3555,2.356,2.3565,0,0,0,0,0,0,2.3686,2.3657,2.3645,2.3647,2.3635,2.361,2.3614,2.3598,2.3588,2.3585,2.3558,2.3553,2.3555,2.3543,2.3534,2.3541,2.3522,2.3524,2.3549,2.3554,2.3559,2.3562,2.3504,0,0,0,0,0,2.3694,2.369,2.3665,2.367,2.3664,2.364,2.3636,2.362,2.3606,2.36,2.3583,2.3569,2.3562,2.3557,2.3549,2.3555,2.355,2.356,2.3564,2.3568,2.357,2.3574,2.3579,2.3528,2.3528,2.3528,0,0,2.371,2.3694,2.3693,2.3676,2.3664,2.3661,2.3636,2.3633,2.363,2.3599,2.3597,2.3584,2.3567,2.357,2.3571,2.356,2.3583,2.3571,2.3574,2.3573,2.3577,2.3582,2.3586,2.3529,2.3529,2.3529,0,0,2.3739,2.3726,2.3729,2.3718,2.3701,2.3686,2.3687,2.3665,2.3656,2.3653,2.3631,2.3627,2.3614,2.3604,2.3597,2.3624,2.3606,2.3621,2.3644,2.3649,2.3653,2.3657,2.3668,2.3672,2.3623,2.3623,2.3623,0,2.3761,2.3755,2.3732,2.3732,2.3726,2.3699,2.3702,2.3693,2.3674,2.367,2.3659,2.3644,2.363,2.3631,2.3638,2.3633,2.3634,2.3624,2.3654,2.3658,2.366,2.3671,2.3675,2.3625,2.3625,2.3625,2.3625,0,2.3784,2.3781,2.3786,2.377,2.3764,2.3765,2.3743,2.374,2.3725,2.3711,2.371,2.3693,2.3682,2.3681,2.3666,2.368,2.3675,2.3659,2.364,2.3668,2.3677,2.3681,2.3628,2.3627,2.3627,2.3626,0,0,2.3833,2.3806,2.3808,2.3801,2.3781,2.3778,2.3779,2.3769,2.3767,2.3755,2.3756,2.3747,2.3733,2.3725,2.3709,2.3713,2.3738,2.3697,2.3696,2.3707,2.3754,2.3767,2.3772,2.3726,2.3727,2.3727,2.3756,0,2.3858,2.3859,2.3839,2.3845,2.3842,2.3817,2.3818,2.3806,2.3794,2.3789,2.3775,2.377,2.3751,2.3747,2.3749,2.3734,2.3747,2.3731,2.3727,2.3727,2.3733,2.3777,2.3789,2.3818,2.376,2.376,2.3761,0,2.3888,2.388,2.3886,2.3868,2.3866,2.3867,2.3858,2.3854,2.384,2.3831,2.3823,2.3805,2.3805,2.3787,2.3787,2.3777,2.3774,2.3767,2.3767,2.3766,2.3746,2.3778,2.3826,2.3831,2.3766,2.3766,2.3765,0,2.3925,2.3915,2.3918,2.3913,2.3891,2.3893,2.3884,2.387,2.3866,2.3857,2.3855,2.3846,2.3841,2.3835,2.3815,2.3803,2.3819,2.3798,2.3811,2.3812,2.3816,2.3816,2.3866,2.3813,2.3812,2.3812,2.3812,0,2.3957,2.3962,2.3935,2.3936,2.3942,2.3919,2.3925,2.3914,2.3902,2.3901,2.3879,2.3879,2.3853,2.385,2.3835,2.3838,2.3836,2.3829,2.3825,2.3831,2.3833,2.383,2.3828,2.3813,2.3813,2.3813,2.3813,0,2.3999,2.398,2.3982,2.3963,2.3958,2.3963,2.3946,2.3947,2.3933,2.3933,2.3932,2.391,2.3906,2.3886,2.3877,2.3867,2.3876,2.3868,2.3881,2.3879,2.3895,2.3894,2.3944,2.3951,2.3893,2.3893,2.3894,0,2.402,2.4024,2.4005,2.4004,2.3997,2.3994,2.399,2.3969,2.3966,2.3952,2.3955,2.395,2.3944,2.3939,2.3922,2.3916,2.3908,2.3926,2.3906,2.3914,2.391,2.391,2.3911,2.393,2.3931,2.3931,2.3932,0,2.4062,2.4053,2.4049,2.4042,2.4039,2.4032,2.4024,2.4024,2.4,2.3998,2.3994,2.399,2.3982,2.3977,2.3968,2.3959,2.3942,2.3938,2.3941,2.3949,2.3957,2.3955,2.3894,2.3937,2.3937,2.3936,2.3936,2.3936,2.4095,2.4098,2.4086,2.4083,2.4075,2.4068,2.4069,2.4056,2.4053,2.4045,2.4032,2.4031,2.4019,2.4005,2.3998,2.3997,2.3987,2.3991,2.3992,2.3994,2.3998,2.3957,2.3995,2.3995,2.3994,2.3994,2.3994,0,2.4136,2.4128,2.4125,2.4116,2.4113,2.4098,2.4089,2.4088,2.4087,2.4078,2.4074,2.407,2.4066,2.405,2.4044,2.4046,2.4039,2.4046,2.4046,2.4045,2.4006,2.4005,2.4052,2.4052,2.4052,2.4052,2.4052,2.4052,2.4158,2.4163,2.4153,2.4154,2.4145,2.4144,2.4141,2.4135,2.4128,2.4125,2.4122,2.4112,2.41,2.4094,2.409,2.4085,2.4085,2.4095,2.4088,2.4053,2.4047,2.4042,2.404,2.4095,2.4095,2.4127,2.4127,2.4127]}]]